"read_dt","SO2 (ppb)","flags","PMT voltage (V)","lamp voltage (V)","lamp intensity (Hz)","internal temp (C)","react chamber temp (C)","sample flow (l/min)","pres (mmHg)","SO2 bkg (ppb)","SO2 coefficient"
2014-01-31 00:00:00,4133E-4,5C000000,-0724,0977,10597,024.1,045.2,0.389,717.8,01.20,0.508
2014-01-31 00:01:00,3323E-4,5C000000,-0724,0976,10888,024.1,045.2,0.390,717.7,01.20,0.508
2014-01-31 00:02:00,2837E-4,5C000000,-0724,0977,10754,024.1,045.2,0.390,717.3,01.20,0.508
2014-01-31 00:03:00,4675E-4,5C000000,-0724,0977,10647,024.1,045.2,0.389,717.8,01.20,0.508
2014-01-31 00:04:00,4095E-4,5C000000,-0724,0977,10869,024.1,045.2,0.389,717.9,01.20,0.508
2014-01-31 00:05:00,4425E-4,5C000000,-0724,0977,10750,024.1,045.2,0.390,718.6,01.20,0.508
2014-01-31 00:06:00,4015E-4,5C000000,-0724,0977,10850,024.0,045.2,0.390,718.0,01.20,0.508
2014-01-31 00:07:00,4377E-4,5C000000,-0724,0976,10883,024.0,045.2,0.390,718.4,01.20,0.508
2014-01-31 00:08:00,3615E-4,5C000000,-0724,0977,10838,024.0,045.2,0.390,718.0,01.20,0.508
2014-01-31 00:09:00,4618E-4,5C000000,-0724,0977,10829,024.0,045.2,0.390,718.6,01.20,0.508
2014-01-31 00:10:00,4344E-4,5C000000,-0724,0977,10744,024.0,045.2,0.389,718.1,01.20,0.508
2014-01-31 00:11:00,4249E-4,5C000000,-0724,0977,10785,024.0,045.2,0.390,718.1,01.20,0.508
2014-01-31 00:12:00,3984E-4,5C000000,-0724,0976,10783,023.9,045.2,0.390,717.8,01.20,0.508
2014-01-31 00:13:00,3325E-4,5C000000,-0724,0977,10729,023.9,045.2,0.390,718.0,01.20,0.508
2014-01-31 00:14:00,3690E-4,5C000000,-0724,0976,10828,023.9,045.2,0.390,717.9,01.20,0.508
2014-01-31 00:15:00,5044E-4,5C000000,-0724,0977,10816,023.9,045.2,0.390,718.2,01.20,0.508
2014-01-31 00:16:00,4340E-4,5C000000,-0724,0977,10827,023.9,045.2,0.390,717.8,01.20,0.508
2014-01-31 00:17:00,3022E-4,5C000000,-0724,0977,10667,023.9,045.2,0.390,718.2,01.20,0.508
2014-01-31 00:18:00,4239E-4,5C000000,-0724,0976,10724,023.9,045.2,0.390,717.4,01.20,0.508
2014-01-31 00:19:00,3181E-4,5C000000,-0724,0976,10824,023.8,045.2,0.391,717.6,01.20,0.508
2014-01-31 00:20:00,2757E-4,5C000000,-0724,0977,10789,023.8,045.2,0.390,717.3,01.20,0.508
2014-01-31 00:21:00,3677E-4,5C000000,-0724,0977,10814,023.8,045.2,0.390,718.1,01.20,0.508
2014-01-31 00:22:00,3800E-4,5C000000,-0724,0977,10843,023.8,045.2,0.390,717.7,01.20,0.508
2014-01-31 00:23:00,3817E-4,5C000000,-0724,0977,10894,023.8,045.2,0.391,717.0,01.20,0.508
2014-01-31 00:24:00,4294E-4,5C000000,-0724,0976,10772,023.7,045.2,0.390,717.6,01.20,0.508
2014-01-31 00:25:00,5112E-4,5C000000,-0724,0977,10788,023.8,045.2,0.390,717.9,01.20,0.508
2014-01-31 00:26:00,4038E-4,5C000000,-0724,0977,10630,023.7,045.2,0.391,717.8,01.20,0.508
2014-01-31 00:27:00,3159E-4,5C000000,-0724,0976,10722,023.7,045.2,0.391,717.8,01.20,0.508
2014-01-31 00:28:00,3145E-4,5C000000,-0724,0976,10801,023.7,045.2,0.390,717.8,01.20,0.508
2014-01-31 00:29:00,4038E-4,5C000000,-0724,0976,10828,023.7,045.2,0.390,717.4,01.20,0.508
2014-01-31 00:30:00,3538E-4,5C000000,-0724,0976,10944,023.7,045.2,0.391,717.7,01.20,0.508
2014-01-31 00:31:00,3033E-4,5C000000,-0724,0975,10764,023.7,045.2,0.391,717.4,01.20,0.508
2014-01-31 00:32:00,3878E-4,5C000000,-0724,0976,10743,023.7,045.2,0.390,717.3,01.20,0.508
2014-01-31 00:33:00,2961E-4,5C000000,-0724,0977,10861,023.7,045.2,0.391,717.6,01.20,0.508
2014-01-31 00:34:00,5083E-4,5C000000,-0724,0977,10693,023.7,045.2,0.391,717.0,01.20,0.508
2014-01-31 00:35:00,4927E-4,5C000000,-0724,0976,10713,023.7,045.2,0.390,717.1,01.20,0.508
2014-01-31 00:36:00,4503E-4,5C000000,-0724,0977,10784,023.7,045.2,0.390,717.6,01.20,0.508
2014-01-31 00:37:00,4533E-4,5C000000,-0724,0976,10665,023.6,045.2,0.391,717.2,01.20,0.508
2014-01-31 00:38:00,3435E-4,5C000000,-0724,0977,10703,023.6,045.2,0.391,717.8,01.20,0.508
2014-01-31 00:39:00,3560E-4,5C000000,-0724,0977,10747,023.6,045.2,0.390,717.4,01.20,0.508
2014-01-31 00:40:00,4243E-4,5C000000,-0724,0976,10677,023.6,045.2,0.390,717.8,01.20,0.508
2014-01-31 00:41:00,3964E-4,5C000000,-0724,0976,10846,023.6,045.2,0.391,717.7,01.20,0.508
2014-01-31 00:42:00,4134E-4,5C000000,-0724,0976,10895,023.6,045.2,0.391,717.5,01.20,0.508
2014-01-31 00:43:00,3960E-4,5C000000,-0724,0976,10749,023.6,045.2,0.391,717.6,01.20,0.508
2014-01-31 00:44:00,3880E-4,5C000000,-0724,0975,10678,023.6,045.2,0.391,717.8,01.20,0.508
2014-01-31 00:45:00,3982E-4,5C000000,-0724,0975,10754,023.6,045.2,0.390,717.1,01.20,0.508
2014-01-31 00:46:00,4221E-4,5C000000,-0724,0976,10828,023.6,045.2,0.391,718.1,01.20,0.508
2014-01-31 00:47:00,4079E-4,5C000000,-0724,0976,10639,023.6,045.2,0.392,717.8,01.20,0.508
2014-01-31 00:48:00,4178E-4,5C000000,-0724,0976,10781,023.5,045.2,0.391,718.0,01.20,0.508
2014-01-31 00:49:00,6987E-4,5C000000,-0724,0976,10622,023.5,045.2,0.391,718.0,01.20,0.508
2014-01-31 00:50:00,5202E-4,5C000000,-0724,0976,10701,023.5,045.2,0.391,717.7,01.20,0.508
2014-01-31 00:51:00,5612E-4,5C000000,-0724,0976,10892,023.5,045.2,0.392,717.4,01.20,0.508
2014-01-31 00:52:00,4605E-4,5C000000,-0724,0976,10848,023.5,045.2,0.391,718.0,01.20,0.508
2014-01-31 00:53:00,3754E-4,5C000000,-0724,0976,10832,023.5,045.2,0.391,717.9,01.20,0.508
2014-01-31 00:54:00,4072E-4,5C000000,-0724,0976,10841,023.5,045.2,0.391,717.5,01.20,0.508
2014-01-31 00:55:00,3906E-4,5C000000,-0724,0977,10836,023.5,045.2,0.391,717.8,01.20,0.508
2014-01-31 00:56:00,3277E-4,5C000000,-0724,0977,10673,023.5,045.2,0.391,717.5,01.20,0.508
2014-01-31 00:57:00,3589E-4,5C000000,-0724,0975,10715,023.5,045.2,0.391,717.5,01.20,0.508
2014-01-31 00:58:00,9036E-4,5C000000,-0724,0977,10863,023.5,045.2,0.391,717.8,01.20,0.508
2014-01-31 00:59:00,6973E-4,5C000000,-0724,0976,10774,023.4,045.2,0.392,717.8,01.20,0.508
2014-01-31 01:00:00,4832E-4,5C000000,-0724,0975,10827,023.4,045.2,0.392,717.6,01.20,0.508
2014-01-31 01:01:00,4768E-4,5C000000,-0724,0976,10895,023.4,045.2,0.391,718.1,01.20,0.508
2014-01-31 01:02:00,4569E-4,5C000000,-0724,0975,10808,023.4,045.2,0.391,717.3,01.20,0.508
2014-01-31 01:03:00,5966E-4,5C000000,-0724,0976,10942,023.4,045.2,0.391,717.3,01.20,0.508
2014-01-31 01:04:00,6051E-4,5C000000,-0724,0975,10754,023.4,045.2,0.392,718.0,01.20,0.508
2014-01-31 01:05:00,5954E-4,5C000000,-0724,0976,10848,023.4,045.2,0.391,717.4,01.20,0.508
2014-01-31 01:06:00,3970E-4,5C000000,-0724,0977,10840,023.4,045.2,0.391,717.2,01.20,0.508
2014-01-31 01:07:00,5505E-4,5C000000,-0724,0975,10847,023.4,045.2,0.391,717.2,01.20,0.508
2014-01-31 01:08:00,4169E-4,5C000000,-0724,0975,10745,023.4,045.2,0.392,717.1,01.20,0.508
2014-01-31 01:09:00,4756E-4,5C000000,-0724,0976,10746,023.3,045.2,0.391,717.1,01.20,0.508
2014-01-31 01:10:00,4616E-4,5C000000,-0724,0975,10779,023.4,045.2,0.391,717.5,01.20,0.508
2014-01-31 01:11:00,4289E-4,5C000000,-0724,0975,10793,023.4,045.2,0.391,717.5,01.20,0.508
2014-01-31 01:12:00,5081E-4,5C000000,-0724,0976,10724,023.3,045.2,0.392,717.4,01.20,0.508
2014-01-31 01:13:00,3929E-4,5C000000,-0724,0976,10721,023.3,045.2,0.392,717.7,01.20,0.508
2014-01-31 01:14:00,3859E-4,5C000000,-0724,0976,10966,023.3,045.2,0.391,717.3,01.20,0.508
2014-01-31 01:15:00,3788E-4,5C000000,-0724,0975,10801,023.3,045.2,0.391,717.6,01.20,0.508
2014-01-31 01:16:00,4023E-4,5C000000,-0724,0976,10637,023.2,045.2,0.392,717.3,01.20,0.508
2014-01-31 01:17:00,3727E-4,5C000000,-0724,0975,10844,023.3,045.2,0.392,717.4,01.20,0.508
2014-01-31 01:18:00,3641E-4,5C000000,-0724,0975,10795,023.2,045.2,0.391,717.2,01.20,0.508
2014-01-31 01:19:00,3196E-4,5C000000,-0724,0975,10746,023.2,045.2,0.391,716.9,01.20,0.508
2014-01-31 01:20:00,2824E-4,5C000000,-0724,0975,10759,023.2,045.2,0.392,717.3,01.20,0.508
2014-01-31 01:21:00,3273E-4,5C000000,-0724,0976,10917,023.2,045.2,0.392,717.3,01.20,0.508
2014-01-31 01:22:00,4120E-4,5C000000,-0724,0975,10759,023.2,045.2,0.392,717.7,01.20,0.508
2014-01-31 01:23:00,3601E-4,5C000000,-0724,0975,10734,023.2,045.2,0.391,717.3,01.20,0.508
2014-01-31 01:24:00,3794E-4,5C000000,-0724,0975,10809,023.1,045.2,0.391,716.9,01.20,0.508
2014-01-31 01:25:00,3064E-4,5C000000,-0724,0974,10793,023.1,045.2,0.391,717.0,01.20,0.508
2014-01-31 01:26:00,2768E-4,5C000000,-0724,0975,10739,023.1,045.2,0.392,717.3,01.20,0.508
2014-01-31 01:27:00,2753E-4,5C000000,-0724,0975,10825,023.1,045.2,0.392,717.1,01.20,0.508
2014-01-31 01:28:00,2005E-4,5C000000,-0724,0975,10884,023.1,045.2,0.391,717.0,01.20,0.508
2014-01-31 01:29:00,2985E-4,5C000000,-0724,0975,10658,023.1,045.2,0.392,717.1,01.20,0.508
2014-01-31 01:30:00,2116E-4,5C000000,-0724,0974,10887,023.0,045.2,0.392,716.7,01.20,0.508
2014-01-31 01:31:00,2663E-4,5C000000,-0724,0975,10693,023.0,045.2,0.391,716.6,01.20,0.508
2014-01-31 01:32:00,3012E-4,5C000000,-0724,0975,10852,023.0,045.2,0.391,716.6,01.20,0.508
2014-01-31 01:33:00,2626E-4,5C000000,-0724,0975,10837,023.0,045.2,0.392,716.6,01.20,0.508
2014-01-31 01:34:00,2442E-4,5C000000,-0724,0975,10904,023.0,045.2,0.392,717.2,01.20,0.508
2014-01-31 01:35:00,2971E-4,5C000000,-0724,0974,10809,023.0,045.2,0.392,717.1,01.20,0.508
2014-01-31 01:36:00,2391E-4,5C000000,-0724,0974,10787,022.9,045.2,0.391,717.0,01.20,0.508
2014-01-31 01:37:00,3322E-4,5C000000,-0724,0975,10871,022.9,045.2,0.392,717.0,01.20,0.508
2014-01-31 01:38:00,3575E-4,5C000000,-0724,0974,10923,022.9,045.2,0.392,716.9,01.20,0.508
2014-01-31 01:39:00,2669E-4,5C000000,-0724,0974,10605,022.9,045.1,0.392,717.3,01.20,0.508
2014-01-31 01:40:00,1917E-4,5C000000,-0724,0975,10806,022.9,045.1,0.391,716.6,01.20,0.508
2014-01-31 01:41:00,2513E-4,5C000000,-0724,0975,10850,022.9,045.2,0.392,717.1,01.20,0.508
2014-01-31 01:42:00,2739E-4,5C000000,-0724,0975,10682,022.8,045.2,0.393,717.2,01.20,0.508
2014-01-31 01:43:00,2287E-4,5C000000,-0724,0974,10822,022.8,045.2,0.392,716.8,01.20,0.508
2014-01-31 01:44:00,2414E-4,5C000000,-0724,0975,10809,022.8,045.2,0.392,716.8,01.20,0.508
2014-01-31 01:45:00,2007E-4,5C000000,-0724,0975,10690,022.8,045.1,0.393,717.4,01.20,0.508
2014-01-31 01:46:00,2242E-4,5C000000,-0724,0975,10868,022.8,045.2,0.392,716.7,01.20,0.508
2014-01-31 01:47:00,3033E-4,5C000000,-0724,0974,10548,022.7,045.2,0.392,716.6,01.20,0.508
2014-01-31 01:48:00,2137E-4,5C000000,-0724,0974,10857,022.7,045.2,0.392,716.8,01.20,0.508
2014-01-31 01:49:00,2395E-4,5C000000,-0724,0975,10804,022.7,045.2,0.393,716.2,01.20,0.508
2014-01-31 01:50:00,2062E-4,5C000000,-0724,0974,10885,022.7,045.1,0.392,717.2,01.20,0.508
2014-01-31 01:51:00,3728E-4,5C000000,-0724,0975,10926,022.7,045.2,0.393,716.9,01.20,0.508
2014-01-31 01:52:00,1459E-4,5C000000,-0724,0975,10740,022.7,045.2,0.393,716.8,01.20,0.508
2014-01-31 01:53:00,2629E-4,5C000000,-0724,0974,10891,022.6,045.2,0.393,716.3,01.20,0.508
2014-01-31 01:54:00,2019E-4,5C000000,-0724,0975,10587,022.6,045.2,0.392,716.3,01.20,0.508
2014-01-31 01:55:00,2629E-4,5C000000,-0724,0974,10664,022.6,045.2,0.392,716.8,01.20,0.508
2014-01-31 01:56:00,2491E-4,5C000000,-0724,0974,10869,022.6,045.1,0.393,716.8,01.20,0.508
2014-01-31 01:57:00,2234E-4,5C000000,-0724,0974,10813,022.6,045.1,0.392,716.7,01.20,0.508
2014-01-31 01:58:00,2787E-4,5C000000,-0724,0975,10807,022.6,045.2,0.392,717.2,01.20,0.508
2014-01-31 01:59:00,1834E-4,5C000000,-0724,0974,10834,022.5,045.2,0.393,716.3,01.20,0.508
2014-01-31 02:00:00,2620E-4,5C000000,-0724,0974,10713,022.5,045.1,0.393,716.9,01.20,0.508
2014-01-31 02:01:00,2076E-4,5C000000,-0724,0974,10696,022.5,045.2,0.392,717.0,01.20,0.508
2014-01-31 02:02:00,1636E-4,5C000000,-0724,0974,10735,022.5,045.2,0.393,716.4,01.20,0.508
2014-01-31 02:03:00,2557E-4,5C000000,-0724,0974,10776,022.4,045.1,0.393,716.5,01.20,0.508
2014-01-31 02:04:00,2314E-4,5C000000,-0724,0974,10774,022.4,045.2,0.392,716.3,01.20,0.508
2014-01-31 02:05:00,1754E-4,5C000000,-0724,0973,10827,022.4,045.1,0.393,716.3,01.20,0.508
2014-01-31 02:06:00,2061E-4,5C000000,-0724,0975,10916,022.4,045.1,0.393,717.0,01.20,0.508
2014-01-31 02:07:00,1816E-4,5C000000,-0724,0974,10656,022.4,045.1,0.393,717.0,01.20,0.508
2014-01-31 02:08:00,2627E-4,5C000000,-0724,0975,10836,022.4,045.2,0.393,716.9,01.20,0.508
2014-01-31 02:09:00,2849E-4,5C000000,-0724,0974,10872,022.4,045.1,0.393,716.6,01.20,0.508
2014-01-31 02:10:00,2148E-4,5C000000,-0724,0974,10902,022.3,045.1,0.393,716.8,01.20,0.508
2014-01-31 02:11:00,2978E-4,5C000000,-0724,0974,10593,022.3,045.1,0.393,716.8,01.20,0.508
2014-01-31 02:12:00,2019E-4,5C000000,-0724,0974,10756,022.3,045.2,0.393,716.8,01.20,0.508
2014-01-31 02:13:00,1401E-4,5C000000,-0724,0974,10756,022.3,045.2,0.393,716.3,01.20,0.508
2014-01-31 02:14:00,2185E-4,5C000000,-0724,0974,10906,022.3,045.1,0.393,717.0,01.20,0.508
2014-01-31 02:15:00,2798E-4,5C000000,-0724,0974,10855,022.2,045.1,0.393,716.5,01.20,0.508
2014-01-31 02:16:00,2772E-4,5C000000,-0724,0975,10641,022.2,045.1,0.393,716.4,01.20,0.508
2014-01-31 02:17:00,1933E-4,5C000000,-0724,0974,10821,022.2,045.2,0.393,716.7,01.20,0.508
2014-01-31 02:18:00,2517E-4,5C000000,-0724,0974,10848,022.2,045.2,0.393,716.5,01.20,0.508
2014-01-31 02:19:00,2794E-4,5C000000,-0724,0973,10838,022.2,045.2,0.394,716.5,01.20,0.508
2014-01-31 02:20:00,3221E-4,5C000000,-0724,0974,10798,022.2,045.1,0.393,716.6,01.20,0.508
2014-01-31 02:21:00,2300E-4,5C000000,-0724,0974,10889,022.2,045.1,0.393,716.5,01.20,0.508
2014-01-31 02:22:00,1866E-4,5C000000,-0724,0975,10934,022.1,045.2,0.393,715.2,01.20,0.508
2014-01-31 02:23:00,3685E-4,5C000000,-0724,0974,10816,022.1,045.1,0.392,715.1,01.20,0.508
2014-01-31 02:24:00,3100E-4,5C000000,-0724,0974,10844,022.0,045.1,0.392,715.4,01.20,0.508
2014-01-31 02:25:00,2176E-4,5C000000,-0724,0974,10920,022.0,045.2,0.393,714.9,01.20,0.508
2014-01-31 02:26:00,2106E-4,5C000000,-0724,0974,10886,022.0,045.1,0.393,715.4,01.20,0.508
2014-01-31 02:27:00,2991E-4,5C000000,-0724,0973,10888,022.0,045.2,0.392,714.9,01.20,0.508
2014-01-31 02:28:00,1973E-4,5C000000,-0724,0973,10741,021.9,045.2,0.393,714.9,01.20,0.508
2014-01-31 02:29:00,2102E-4,5C000000,-0724,0973,10785,021.9,045.1,0.393,715.4,01.20,0.508
2014-01-31 02:30:00,2004E-4,5C000000,-0724,0974,10889,021.9,045.2,0.393,714.9,01.20,0.508
2014-01-31 02:31:00,2165E-4,5C000000,-0724,0973,10787,021.8,045.1,0.393,715.3,01.20,0.508
2014-01-31 02:32:00,2846E-4,5C000000,-0724,0974,10670,021.8,045.1,0.393,714.8,01.20,0.508
2014-01-31 02:33:00,1639E-4,5C000000,-0724,0973,10745,021.8,045.1,0.393,714.8,01.20,0.508
2014-01-31 02:34:00,2325E-4,5C000000,-0724,0972,10834,021.8,045.1,0.392,714.5,01.20,0.508
2014-01-31 02:35:00,2355E-4,5C000000,-0724,0973,10752,021.7,045.1,0.393,714.5,01.20,0.508
2014-01-31 02:36:00,1834E-4,5C000000,-0724,0973,10778,021.7,045.1,0.393,715.2,01.20,0.508
2014-01-31 02:37:00,1997E-4,5C000000,-0724,0973,10856,021.7,045.1,0.392,714.7,01.20,0.508
2014-01-31 02:38:00,2378E-4,5C000000,-0724,0973,10715,021.7,045.1,0.393,714.9,01.20,0.508
2014-01-31 02:39:00,2610E-4,5C000000,-0724,0973,10714,021.7,045.1,0.393,714.5,01.20,0.508
2014-01-31 02:40:00,2033E-4,5C000000,-0724,0972,10532,021.7,045.1,0.393,714.6,01.20,0.508
2014-01-31 02:41:00,2055E-4,5C000000,-0724,0972,10822,021.6,045.1,0.393,714.7,01.20,0.508
2014-01-31 02:42:00,2022E-4,5C000000,-0724,0973,10919,021.6,045.1,0.393,714.6,01.20,0.508
2014-01-31 02:43:00,1422E-4,5C000000,-0724,0973,10790,021.6,045.2,0.393,714.9,01.20,0.508
2014-01-31 02:44:00,2310E-4,5C000000,-0724,0972,10715,021.6,045.2,0.393,714.4,01.21,0.508
2014-01-31 02:45:00,1427E-4,5C000000,-0724,0973,10760,021.5,045.1,0.393,714.4,01.21,0.508
2014-01-31 02:46:00,1872E-4,5C000000,-0724,0973,10824,021.5,045.1,0.393,714.4,01.21,0.508
2014-01-31 02:47:00,2454E-4,5C000000,-0724,0973,10632,021.5,045.1,0.393,714.4,01.21,0.508
2014-01-31 02:48:00,2626E-4,5C000000,-0724,0972,10892,021.5,045.1,0.393,714.3,01.21,0.508
2014-01-31 02:49:00,2357E-4,5C000000,-0724,0973,10872,021.5,045.1,0.393,714.2,01.21,0.508
2014-01-31 02:50:00,2183E-4,5C000000,-0724,0973,10876,021.4,045.1,0.393,714.1,01.21,0.508
2014-01-31 02:51:00,1557E-4,5C000000,-0724,0972,10839,021.4,045.1,0.393,713.7,01.21,0.508
2014-01-31 02:52:00,2202E-4,5C000000,-0724,0973,10862,021.4,045.1,0.392,713.9,01.21,0.508
2014-01-31 02:53:00,1620E-4,5C000000,-0724,0972,10829,021.4,045.1,0.393,713.1,01.21,0.508
2014-01-31 02:54:00,2688E-4,5C000000,-0724,0972,10840,021.3,045.1,0.393,713.6,01.21,0.508
2014-01-31 02:55:00,2764E-4,5C000000,-0724,0972,10836,021.3,045.1,0.392,712.7,01.21,0.508
2014-01-31 02:56:00,1475E-4,5C000000,-0724,0973,10852,021.3,045.1,0.393,713.4,01.21,0.508
2014-01-31 02:57:00,1453E-4,5C000000,-0724,0972,10806,021.3,045.1,0.392,713.1,01.21,0.508
2014-01-31 02:58:00,1924E-4,5C000000,-0724,0973,10704,021.3,045.1,0.393,713.6,01.21,0.508
2014-01-31 02:59:00,4357E-5,5C000000,-0724,0973,10779,021.2,045.1,0.392,712.7,01.21,0.508
2014-01-31 03:00:00,2361E-4,5C000000,-0724,0972,10838,021.2,045.1,0.393,713.5,01.21,0.508
2014-01-31 03:01:00,1454E-4,5C000000,-0724,0973,10954,021.2,045.1,0.393,713.3,01.21,0.508
2014-01-31 03:02:00,1689E-4,5C000000,-0724,0972,10748,021.2,045.1,0.393,713.3,01.21,0.508
2014-01-31 03:03:00,2299E-4,5C000000,-0724,0972,10825,021.2,045.1,0.393,712.7,01.21,0.508
2014-01-31 03:04:00,1960E-4,5C000000,-0724,0972,10858,021.2,045.1,0.393,713.5,01.21,0.508
2014-01-31 03:05:00,1388E-4,5C000000,-0724,0971,10794,021.1,045.1,0.393,713.1,01.21,0.508
2014-01-31 03:06:00,1645E-4,5C000000,-0724,0972,10878,021.1,045.1,0.392,712.5,01.21,0.508
2014-01-31 03:07:00,1661E-4,5C000000,-0724,0973,10749,021.1,045.1,0.393,712.6,01.21,0.508
2014-01-31 03:08:00,1778E-4,5C000000,-0724,0973,10745,021.1,045.1,0.392,712.5,01.21,0.508
2014-01-31 03:09:00,1473E-4,5C000000,-0724,0972,10799,021.1,045.1,0.392,712.6,01.21,0.508
2014-01-31 03:10:00,1294E-4,5C000000,-0724,0972,10731,021.0,045.1,0.393,712.3,01.21,0.508
2014-01-31 03:11:00,2534E-4,5C000000,-0724,0972,10558,021.0,045.1,0.392,712.6,01.21,0.508
2014-01-31 03:12:00,1311E-4,5C000000,-0724,0973,10776,021.0,045.1,0.393,712.2,01.21,0.508
2014-01-31 03:13:00,2181E-4,5C000000,-0724,0972,10862,021.0,045.1,0.393,713.2,01.21,0.508
2014-01-31 03:14:00,1561E-4,5C000000,-0724,0973,10823,021.0,045.1,0.393,712.8,01.21,0.508
2014-01-31 03:15:00,9233E-5,5C000000,-0724,0972,10846,021.0,045.1,0.393,712.6,01.21,0.508
2014-01-31 03:16:00,2092E-4,5C000000,-0724,0972,10792,021.0,045.1,0.393,713.2,01.21,0.508
2014-01-31 03:17:00,1773E-4,5C000000,-0724,0973,10811,020.9,045.1,0.393,712.8,01.21,0.508
2014-01-31 03:18:00,2211E-4,5C000000,-0724,0972,10625,021.0,045.1,0.394,713.4,01.21,0.508
2014-01-31 03:19:00,2092E-4,5C000000,-0724,0972,10773,020.9,045.1,0.393,713.2,01.21,0.508
2014-01-31 03:20:00,1740E-4,5C000000,-0724,0972,10719,020.9,045.1,0.394,713.5,01.21,0.508
2014-01-31 03:21:00,1783E-4,5C000000,-0724,0972,10703,020.9,045.1,0.393,713.2,01.21,0.508
2014-01-31 03:22:00,1726E-4,5C000000,-0724,0972,10842,020.9,045.1,0.393,713.7,01.21,0.508
2014-01-31 03:23:00,2220E-4,5C000000,-0724,0972,10779,020.8,045.1,0.393,713.2,01.21,0.508
2014-01-31 03:24:00,2583E-4,5C000000,-0724,0972,10845,020.8,045.1,0.394,713.7,01.21,0.508
2014-01-31 03:25:00,1916E-4,5C000000,-0724,0971,10790,020.8,045.1,0.393,713.3,01.21,0.508
2014-01-31 03:26:00,1377E-4,5C000000,-0724,0971,10728,020.8,045.1,0.393,713.0,01.21,0.508
2014-01-31 03:27:00,1478E-4,5C000000,-0724,0972,10880,020.8,045.1,0.394,713.4,01.21,0.508
2014-01-31 03:28:00,1147E-4,5C000000,-0724,0972,10789,020.8,045.1,0.393,713.0,01.21,0.508
2014-01-31 03:29:00,1958E-4,5C000000,-0724,0972,10772,020.8,045.1,0.394,713.6,01.21,0.508
2014-01-31 03:30:00,1513E-4,5C000000,-0724,0972,10875,020.8,045.1,0.393,713.1,01.21,0.508
2014-01-31 03:31:00,2048E-4,5C000000,-0724,0971,10839,020.7,045.1,0.393,713.6,01.21,0.508
2014-01-31 03:32:00,1889E-4,5C000000,-0724,0973,10848,020.7,045.1,0.394,713.5,01.21,0.508
2014-01-31 03:33:00,1369E-4,5C000000,-0724,0970,10784,020.7,045.1,0.394,714.1,01.21,0.508
2014-01-31 03:34:00,1291E-4,5C000000,-0724,0972,10662,020.7,045.1,0.394,713.8,01.21,0.508
2014-01-31 03:35:00,9213E-5,5C000000,-0724,0972,10785,020.7,045.1,0.394,714.1,01.21,0.508
2014-01-31 03:36:00,2508E-4,5C000000,-0724,0971,10848,020.7,045.1,0.394,714.3,01.21,0.508
2014-01-31 03:37:00,1749E-4,5C000000,-0724,0971,10859,020.7,045.1,0.394,714.6,01.20,0.508
2014-01-31 03:38:00,1938E-4,5C000000,-0724,0972,10837,020.6,045.1,0.394,714.1,01.21,0.508
2014-01-31 03:39:00,4809E-5,5C000000,-0724,0972,10903,020.6,045.1,0.394,713.7,01.21,0.508
2014-01-31 03:40:00,2177E-4,5C000000,-0724,0972,10808,020.6,045.1,0.394,714.0,01.21,0.508
2014-01-31 03:41:00,1952E-4,5C000000,-0724,0972,10854,020.6,045.1,0.395,714.2,01.21,0.508
2014-01-31 03:42:00,1403E-4,5C000000,-0724,0972,10995,020.6,045.1,0.394,714.2,01.21,0.508
2014-01-31 03:43:00,1886E-4,5C000000,-0724,0971,10882,020.6,045.1,0.394,714.5,01.20,0.508
2014-01-31 03:44:00,8326E-5,5C000000,-0724,0972,10796,020.6,045.1,0.395,714.4,01.21,0.508
2014-01-31 03:45:00,1424E-4,5C000000,-0724,0971,10756,020.6,045.1,0.394,714.7,01.20,0.508
2014-01-31 03:46:00,2169E-4,5C000000,-0724,0971,10869,020.6,045.1,0.394,714.1,01.21,0.508
2014-01-31 03:47:00,6231E-5,5C000000,-0724,0971,10789,020.6,045.1,0.395,714.6,01.20,0.508
2014-01-31 03:48:00,1419E-4,5C000000,-0724,0973,10908,020.6,045.1,0.394,713.9,01.21,0.508
2014-01-31 03:49:00,8530E-5,5C000000,-0724,0971,10733,020.5,045.1,0.394,714.7,01.20,0.508
2014-01-31 03:50:00,1567E-4,5C000000,-0724,0972,10916,020.5,045.1,0.394,713.6,01.21,0.508
2014-01-31 03:51:00,1410E-4,5C000000,-0724,0971,10759,020.5,045.1,0.394,713.8,01.21,0.508
2014-01-31 03:52:00,2013E-4,5C000000,-0724,0971,10815,020.5,045.1,0.394,713.7,01.21,0.508
2014-01-31 03:53:00,1894E-4,5C000000,-0724,0971,10915,020.5,045.1,0.394,713.7,01.21,0.508
2014-01-31 03:54:00,2324E-4,5C000000,-0724,0971,10807,020.5,045.1,0.394,713.8,01.21,0.508
2014-01-31 03:55:00,2362E-4,5C000000,-0724,0972,10888,020.5,045.1,0.394,713.3,01.21,0.508
2014-01-31 03:56:00,9202E-5,5C000000,-0724,0972,10865,020.5,045.1,0.394,713.4,01.21,0.508
2014-01-31 03:57:00,2437E-4,5C000000,-0724,0972,10788,020.5,045.1,0.394,713.8,01.21,0.508
2014-01-31 03:58:00,1550E-4,5C000000,-0724,0972,10867,020.5,045.1,0.394,713.2,01.21,0.508
2014-01-31 03:59:00,2100E-4,5C000000,-0724,0971,10847,020.5,045.1,0.394,713.8,01.21,0.508
2014-01-31 04:00:00,2072E-4,5C000000,-0724,0972,10781,020.5,045.1,0.394,714.0,01.21,0.508
2014-01-31 04:01:00,2105E-4,5C000000,-0724,0972,10922,020.5,045.1,0.393,713.0,01.21,0.508
2014-01-31 04:02:00,1981E-4,5C000000,-0724,0971,10836,020.5,045.1,0.394,712.8,01.21,0.508
2014-01-31 04:03:00,2344E-4,5C000000,-0724,0971,10741,020.5,045.1,0.393,712.9,01.21,0.508
2014-01-31 04:04:00,1677E-4,5C000000,-0724,0972,10872,020.4,045.1,0.393,712.3,01.21,0.508
2014-01-31 04:05:00,1682E-4,5C000000,-0724,0972,10696,020.5,045.1,0.393,712.4,01.21,0.508
2014-01-31 04:06:00,1469E-4,5C000000,-0724,0971,10883,020.5,045.1,0.393,712.4,01.21,0.508
2014-01-31 04:07:00,1492E-4,5C000000,-0724,0970,10764,020.4,045.1,0.394,713.0,01.21,0.508
2014-01-31 04:08:00,1432E-4,5C000000,-0724,0971,10818,020.5,045.1,0.393,712.8,01.21,0.508
2014-01-31 04:09:00,2137E-4,5C000000,-0724,0972,10777,020.5,045.1,0.394,713.0,01.21,0.508
2014-01-31 04:10:00,6615E-5,5C000000,-0724,0972,10827,020.5,045.1,0.394,713.4,01.21,0.508
2014-01-31 04:11:00,2620E-4,5C000000,-0724,0972,10916,020.4,045.1,0.394,713.7,01.21,0.508
2014-01-31 04:12:00,1415E-4,5C000000,-0724,0971,10876,020.5,045.1,0.394,713.7,01.21,0.508
2014-01-31 04:13:00,1258E-4,5C000000,-0724,0971,10857,020.4,045.1,0.394,714.0,01.21,0.508
2014-01-31 04:14:00,2184E-4,5C000000,-0724,0970,10761,020.4,045.1,0.394,714.0,01.21,0.508
2014-01-31 04:15:00,9798E-5,5C000000,-0724,0972,10758,020.4,045.1,0.394,714.1,01.21,0.508
2014-01-31 04:16:00,1916E-4,5C000000,-0724,0972,10820,020.4,045.1,0.394,714.0,01.21,0.508
2014-01-31 04:17:00,2134E-4,5C000000,-0724,0971,10770,020.4,045.1,0.394,713.9,01.21,0.508
2014-01-31 04:18:00,1307E-4,5C000000,-0724,0970,10843,020.4,045.1,0.394,713.6,01.21,0.508
2014-01-31 04:19:00,1079E-4,5C000000,-0724,0972,10938,020.4,045.1,0.394,714.1,01.20,0.508
2014-01-31 04:20:00,2404E-4,5C000000,-0724,0971,10906,020.4,045.1,0.395,713.9,01.21,0.508